Location: Akdamlar
(36.8729°N, 30.5187°E)
Time: 19:16:43
(UTC+00:00)

CENTAUR R/B - Pass Details

Date: 18 September 2020
Orbit: 755 x 1433 km, 63.4° (Epoch: 02 October)

Event Time Altitude Azimuth Distance (km) Brightness Sun altitude
Rises 17:38:40 0° 333° (NNW) 4,151 6.5 -20.1°
Reaches altitude 10° 17:41:45 10° 344° (NNW) 3,277 5.7 -20.7°
Maximum altitude 17:48:51 32° 45° (NE) 2,194 4.1 -22.0°
Enters shadow 17:51:21 27° 73° (ENE) 2,402 4.1 -22.5°
